MDT,Max TemperatureF,Mean TemperatureF,Min TemperatureF,Max Dew PointF,MeanDew PointF,Min DewpointF,Max Humidity, Mean Humidity, Min Humidity, Max Sea Level PressureIn, Mean Sea Level PressureIn, Min Sea Level PressureIn, Max VisibilityMiles, Mean VisibilityMiles, Min VisibilityMiles, Max Wind SpeedMPH, Mean Wind SpeedMPH, Max Gust SpeedMPH,PrecipitationIn, CloudCover, Events, WindDirDegrees
2013-5-1,66,48,30,28,21,8,70,34,12,30.32,29.88,29.56,10,10,10,29,14,36,0.00,2,,112
2013-5-2,45,34,25,16,11,7,60,42,24,30.53,30.43,30.23,10,10,10,24,18,33,0.00,3,,60
2013-5-3,64,42,21,12,8,0,55,30,8,30.44,30.17,29.91,10,10,10,23,11,28,0.00,0,,181
2013-5-4,62,44,28,10,8,5,37,22,12,30.06,29.97,29.93,10,10,10,17,9,23,0.00,0,,97
2013-5-5,61,48,34,21,12,3,38,26,18,30.14,30.05,29.98,10,10,10,25,9,33,0.00,2,,184
2013-5-6,57,46,37,43,31,10,93,59,26,30.15,30.00,29.91,10,9,2,28,9,43,0.13,5,Rain-Thunderstorm,192
2013-5-7,70,54,37,43,31,15,100,63,13,30.09,29.93,29.76,10,8,0,25,10,36,0.00,2,Fog,186
2013-5-8,66,52,39,31,18,6,63,28,9,29.86,29.79,29.73,10,10,10,29,10,46,0.00,0,,275
2013-5-9,66,52,39,37,26,13,89,44,19,30.20,29.97,29.84,10,10,10,31,11,38,0.00,4,Rain-Thunderstorm,57
2013-5-10,57,46,34,39,33,27,96,62,36,30.37,30.14,30.03,10,10,7,18,10,28,0.00,4,Rain,43
2013-5-11,63,48,35,36,30,26,89,51,26,30.42,30.25,30.18,10,10,8,18,9,36,0.00,2,Rain,60
2013-5-12,71,54,37,31,26,20,70,36,17,30.30,30.14,30.06,10,10,10,14,6,25,0.00,2,,219
2013-5-13,79,58,39,27,22,16,51,27,12,30.12,30.06,29.98,10,10,10,18,8,26,0.00,0,,170
2013-5-14,81,62,43,32,22,13,42,23,11,30.10,29.89,29.76,10,10,10,23,13,38,0.00,1,Rain,230
2013-5-15,75,58,43,38,33,28,58,38,18,30.04,29.79,29.74,10,10,10,29,9,34,0.00,2,,333
2013-5-16,82,64,48,34,18,9,56,22,8,29.82,29.74,29.65,10,10,10,24,5,30,0.00,0,,278
2013-5-17,82,64,45,15,8,-8,24,11,4,30.09,29.75,29.68,10,10,10,32,10,43,0.00,0,,256
2013-5-18,75,62,52,21,15,10,30,17,10,29.76,29.69,29.64,10,10,10,31,10,41,0.00,0,,260
2013-5-19,69,58,48,30,23,12,48,29,11,30.02,29.72,29.62,10,10,10,31,14,45,0.00,1,,291
2013-5-20,70,57,45,32,23,15,58,31,14,29.81,29.74,29.69,10,10,10,23,12,31,0.00,2,,305
2013-5-21,73,56,39,38,28,14,86,42,11,30.04,29.83,29.71,10,10,10,17,11,28,0.00,2,Rain,344
2013-5-22,81,58,37,32,17,5,60,26,6,29.83,29.75,29.68,10,10,10,24,10,37,0.00,0,,234
2013-5-23,80,64,48,55,33,12,94,39,12,30.20,29.88,29.70,10,9,5,26,10,33,0.06,2,Rain-Thunderstorm,110
2013-5-24,80,62,46,49,44,35,87,60,20,30.27,30.01,29.83,10,9,2,31,12,45,0.03,3,Rain-Thunderstorm,181
2013-5-25,84,68,52,54,40,15,97,51,7,30.25,29.91,29.77,10,10,7,28,13,40,0.00,2,,176
2013-5-26,82,64,48,40,16,-2,68,24,4,29.87,29.80,29.74,10,10,10,29,13,39,0.00,0,,220
2013-5-27,82,68,54,16,5,-9,16,10,4,29.74,29.69,29.63,10,10,10,29,10,39,0.00,0,,263
2013-5-28,81,65,50,15,5,-5,23,11,4,29.92,29.57,29.45,10,10,10,30,11,40,0.00,0,,240
2013-5-29,75,64,54,30,15,4,30,16,10,29.54,29.45,29.38,10,10,10,37,13,48,0.00,1,,268
2013-5-30,80,64,48,20,15,7,30,16,6,29.67,29.62,29.57,10,10,8,34,14,50,0.00,0,,278
2013-5-31,82,66,51,25,12,4,25,12,6,30.04,29.77,29.61,10,7,2,28,13,37,0.00,3,,268